Orbital Elements at Epoch 2459173.5 (2020-Nov-20.0) TDB
Reference: JPL 12 (heliocentric ecliptic J2000)
Element | Value | Uncertainty (1-sigma) | Units |
e | 1.000498273980376 | 4.1746e-06 | |
a | -2650.536359143202 | 22.206 | au |
q | 1.320693301801731 | 1.1055e-06 | au |
i | 29.70375231593655 | 2.351e-05 | deg |
node | 279.9816836672148 | 5.4217e-05 | deg |
peri | 186.7727317227527 | 5.9022e-05 | deg |
M | -.0008106013290248145 | 1.0186e-05 | deg |
tp | 2459285.728688220008 (2021-Mar-12.22868822) | 8.3432e-05 | TDB |
period | n/a n/a | n/a n/a | d yr |
n | 7.222763999840652E-6 | 9.0767e-08 | deg/d |
Q | n/a | n/a | au |
|
| | Orbit Determination Parameters
Additional Information
|